976  
ASUS44 KMEG 241510  
RWRMEG  
MEMPHIS CWA HOURLY WEATHER ROUNDUP  
NATIONAL WEATHER SERVICE MEMPHIS TN  
1000 AM CDT SUN SEP 24 2017  
   
..WEST TENNESSEE
 
 
 
CITY SKY/WX TMP DP RH WIND PRES REMARKS
 
MEMPHIS INTL SUNNY 82 70 66 CALM 30.03S  
NWS MEMPHIS N/A 82 N/A N/A MISG N/A  
JACKSON MOSUNNY 80 71 74 CALM 30.06S  
COVINGTON SUNNY 81 73 78 CALM 30.04S  
SOMERVILLE SUNNY 82 72 69 CALM 30.04S  
BOLIVAR SUNNY 79 72 78 CALM 30.05S  
LEXINGTON SUNNY 79 68 69 VRB5 30.07R  
SELMER SUNNY 81 70 69 S7 30.06S  
SAVANNAH SUNNY 81 68 65 S6 30.06S  
DYERSBURG SUNNY 82 71 69 S6 30.05S  
PARIS SUNNY 81 70 69 VRB7 30.05F  
HUNTINGDON SUNNY 81 70 69 S5 30.05F  
 
   
..EASTERN ARKANSAS
 
 
 
CITY SKY/WX TMP DP RH WIND PRES REMARKS
 
JONESBORO SUNNY 81 72 74 CALM 30.03S  
WEST MEMPHIS SUNNY 82 72 71 S3 30.02R  
BATESVILLE SUNNY 80 70 71 SE3 30.04R  
NEWPORT SUNNY 83 70 64 S6 30.03S  
BLYTHEVILLE SUNNY 82 73 74 S5 30.04R  
SEARCY SUNNY 81 73 76 E5 30.04R  
STUTTGART SUNNY 82 71 69 SE6 30.01S  
PINE BLUFF SUNNY 80 70 71 SE6 30.00S  
MONTICELLO SUNNY 80 70 71 SE5 30.00R  
 
   
..NORTH MISSISSIPPI
 
 
 
CITY SKY/WX TMP DP RH WIND PRES REMARKS
 
TUPELO SUNNY 81 65 58 CALM 30.05R  
BATESVILLE SUNNY 80 71 72 CALM 30.03S  
OLIVE BRANCH SUNNY N/A N/A N/A CALM 30.03S  
TUNICA N/A 81 70 69 CALM 30.03S  
CLARKSDALE N/A 82 70 65 CALM 30.02S  
GREENWOOD SUNNY 82 70 66 E5 30.01R  
COLUMBUS SUNNY 81 74 79 SE7 30.03S  
STARKVILLE SUNNY 79 70 73 E5 30.05R  
GOLDEN TRIANGL SUNNY 79 70 73 SE7 30.04R  
 
   
..SOUTHEAST MISSOURI
 
 
 
CITY SKY/WX TMP DP RH WIND PRES REMARKS
 
KENNETT SUNNY 82 72 69 CALM 30.02S  
MALDEN SUNNY 82 70 65 CALM 30.05S  
WEST PLAINS SUNNY 80 67 64 SE3 30.08R  
POPLAR BLUFF SUNNY 79 71 76 CALM 30.04S  
CAPE GIRARDEAU SUNNY 82 69 64 VRB3 30.04S  
 
   
..NORTHWEST ALABAMA
 
 
 
CITY SKY/WX TMP DP RH WIND PRES REMARKS
 
MUSCLE SHOALS SUNNY 78 66 66 E3 30.09R  
 
   
..MIDDLE TENNESSEE
 
 
 
CITY SKY/WX TMP DP RH WIND PRES REMARKS
 
NASHVILLE MOSUNNY 81 68 64 S7 30.08S  
CLARKSVILLE SUNNY 79 69 71 VRB3 30.07S  
COLUMBIA SUNNY 77 N/A N/A CALM 30.07S  
 
   
..WESTERN KENTUCKY
 
 
 
CITY SKY/WX TMP DP RH WIND PRES REMARKS
 
PADUCAH SUNNY 82 69 64 SE5 30.05S  
FORT CAMPBELL SUNNY 80 68 67 S6 30.07S  
 
   
..CENTRAL ARKANSAS
 
 
 
CITY SKY/WX TMP DP RH WIND PRES REMARKS
 
LITTLE ROCK SUNNY 80 72 76 CALM 30.01R  
 
SKY/WX REPORTED AS FAIR MEANS FEW OR NO CLOUDS BELOW  
12 THOUSAND FEET.  
 
 
 
CLICK HERE TO GO TO PREVIOUS BULLETINS.

The Nexlab TN Page
The Nexlab MS Page
The Nexlab AR Page Main Text Page